Flag for U.S.A. Weather past 2 weeks in Las Cruces, New Mexico, U.S.A.

Now
66 °F

Passing clouds.


Feels Like: 66 °F
Forecast: 50 / 79 °F
Wind: 12 mph from West

Location: Las Cruces International

Current Time: Apr 1, 2015 at 9:21:00 PM

Latest Report: Apr 1, 2015 at 8:55 PM


Visibility: 10 mi

Pressure: 29.95 "Hg

Humidity: 24%

Dew point: 28 °F

Location of Las CrucesLocation

Historic Weather in Las Cruces — Graph

°F

Las Cruces temperature yesterday

Maximum temperature yesterday: 80 °F (at 4:15 PM)
Minimum temperature yesterday: 55 °F (at 7:55 AM)
Average temperature yesterday: 67 °F

Past Weeks' High & Low Weather Summary

 TemperatureHumidityPressure
High85 °F (Mar 29, 2:35 PM)98% (Mar 18, 5:55 AM)30.34 "Hg (Mar 18, 5:55 AM)
Low37 °F (Mar 26, 6:55 AM)3% (Mar 28, 6:15 PM)29.90 "Hg (Apr 1, 6:55 PM)
Average60 °F38%30.12 "Hg
* Reported Mar 17 8:15 PM — Apr 1 8:15 PM, Las Cruces, Weather by CustomWeather, © 2015

Note: Actual official high and low records may vary slightly from our data, if they occured in-between our weather recording intervals... More about our weather records

Advertising

Las Cruces weather history for previous 24 hours

 ConditionsComfort  
Time TempWeatherWind HumidityBarometerVisibility
8:15 PM
Wed, Apr 1
69 °FSunny.6 mph21%29.94 "Hg10 mi
7:55 PM72 °FSunny.10 mph19%29.93 "Hg10 mi
7:35 PM73 °FSunny.14 mph17%29.92 "Hg10 mi
7:15 PM75 °FSunny.18 mph15%29.92 "Hg10 mi
6:55 PM76 °FSunny.23 mph16%29.90 "Hg10 mi
6:15 PM77 °FSunny.28 mph16%29.91 "Hg10 mi
5:55 PM78 °FSunny.26 mph16%29.91 "Hg10 mi
5:35 PM78 °FSunny.26 mph15%29.91 "Hg10 mi
5:15 PM79 °FSunny.26 mph15%29.91 "Hg10 mi
4:55 PM79 °FSunny.21 mph15%29.91 "Hg10 mi
4:35 PM80 °FSunny.21 mph15%29.91 "Hg10 mi
4:15 PM79 °FSunny.18 mph15%29.92 "Hg10 mi
3:55 PM79 °FSunny.20 mph16%29.93 "Hg10 mi
3:15 PM80 °FSunny.21 mph16%29.95 "Hg10 mi
2:55 PM80 °FSunny.20 mph14%29.95 "Hg10 mi
2:35 PM80 °FScattered clouds.21 mph15%29.96 "Hg10 mi
2:15 PM78 °FScattered clouds.21 mph19%29.97 "Hg10 mi
1:55 PM79 °FScattered clouds.21 mph18%29.98 "Hg10 mi
1:35 PM79 °FScattered clouds.16 mph18%29.99 "Hg10 mi
1:15 PM78 °FScattered clouds.13 mph18%29.99 "Hg10 mi
12:55 PM78 °FScattered clouds.9 mph17%30.00 "Hg10 mi
12:15 PM75 °FSunny.10 mph21%30.02 "Hg10 mi
11:55 AM74 °FSunny.7 mph22%30.03 "Hg10 mi
11:35 AM73 °FSunny.3 mph24%30.03 "Hg10 mi
11:15 AM72 °FSunny.No wind23%30.04 "Hg10 mi
10:55 AM71 °FSunny.3 mph26%30.05 "Hg10 mi
10:35 AM69 °FSunny.No wind31%30.06 "Hg10 mi
10:15 AM67 °FSunny.6 mph33%30.05 "Hg10 mi
9:55 AM65 °FSunny.6 mph40%30.05 "Hg10 mi
9:35 AM63 °FSunny.3 mph46%30.04 "Hg10 mi
9:15 AM60 °FSunny.No wind52%30.04 "Hg10 mi
8:55 AM58 °FSunny.No wind57%30.03 "Hg10 mi
8:35 AM56 °FSunny.No wind61%30.03 "Hg10 mi
8:15 AM55 °FSunny.No wind63%30.02 "Hg10 mi
7:55 AM53 °FClear.3 mph67%30.02 "Hg10 mi
7:35 AM52 °FClear.No wind71%30.01 "Hg10 mi
7:15 AM50 °FClear.5 mph74%30.00 "Hg10 mi
6:55 AM50 °FClear.12 mph75%29.99 "Hg10 mi
6:15 AM50 °FClear.9 mph75%29.99 "Hg10 mi
5:55 AM48 °FClear.3 mph77%29.99 "Hg10 mi
5:35 AM52 °FClear.3 mph71%29.98 "Hg10 mi
5:15 AM52 °FClear.12 mph71%29.97 "Hg10 mi
4:55 AM53 °FClear.14 mph70%29.97 "Hg10 mi
4:35 AM51 °FClear.10 mph71%29.98 "Hg10 mi
4:15 AM52 °FClear.9 mph70%29.99 "Hg10 mi
3:55 AM48 °FClear.8 mph76%29.99 "Hg10 mi
3:35 AM51 °FClear.5 mph71%30.00 "Hg10 mi
3:15 AM51 °FClear.6 mph71%30.01 "Hg10 mi
2:55 AM52 °FClear.3 mph69%30.02 "Hg10 mi
2:35 AM51 °FClear.5 mph71%30.03 "Hg10 mi
2:15 AM52 °FClear.No wind68%30.03 "Hg10 mi
1:55 AM53 °FClear.3 mph67%30.04 "Hg10 mi
1:35 AM52 °FClear.3 mph69%30.04 "Hg10 mi
1:15 AM54 °FClear.No wind65%30.04 "Hg10 mi
12:55 AM54 °FClear.5 mph63%30.05 "Hg10 mi
12:15 AM55 °FClear.5 mph59%30.05 "Hg10 mi
11:55 PM
Tue, Mar 31
58 °FClear.10 mph56%30.04 "Hg10 mi
11:35 PM59 °FClear.8 mph51%30.05 "Hg10 mi
11:15 PM59 °FClear.3 mph45%30.05 "Hg10 mi
10:55 PM58 °FClear.3 mph47%30.03 "Hg10 mi
10:35 PM60 °FClear.6 mph42%30.02 "Hg10 mi
10:15 PM61 °FClear.7 mph43%30.02 "Hg10 mi
9:55 PM61 °FClear.7 mph45%30.02 "Hg10 mi
9:15 PM62 °FPassing clouds.3 mph44%30.03 "Hg10 mi
Weather by CustomWeather, © 2015

See weather overviewHow to use our weather pages